GFSSW_prec_cloud_132.txt.gz
Cloud_Cover
0 0 3 0 4 0 0 0 0 0 0 0 0 0 0 0 0 0 1 12 36 5 5 5 1 4 5 12 5 5 0 4 100 100 100 6 0 0 0 0 5 100 100 100 80
0 1 0 0 0 0 0 0 0 0 0 0 0 0 0 0 0 0 0 0 0 0 2 5 5 5 19 5 4 5 5 97 100 47 96 36 0 4 0 0 93 36 77 100 100
0 0 0 0 0 0 0 0 0 0 0 0 0 0 0 0 0 0 0 0 0 0 0 0 0 5 5 20 7 5 5 76 13 54 17 59 5 0 2 0 3 3 39 100 5
0 0 0 0 0 0 0 0 0 0 11 48 98 90 0 0 0 0 0 0 0 0 0 0 0 0 0 0 0 0 5 9 5 5 6 5 5 0 0 0 0 3 0 4 1
0 0 0 0 0 0 0 0 0 0 0 34 100 100 23 0 0 0 0 0 0 0 0 0 0 0 0 0 0 0 0 0 5 3 0 1 4 0 0 0 0 0 0 2 0
0 0 0 0 0 0 0 0 0 0 43 100 100 98 13 2 0 0 0 0 0 0 0 0 0 0 0 0 0 0 0 0 0 0 2 5 7 5 4 0 0 0 0 0 5
0 0 0 0 0 0 0 0 0 0 0 53 100 99 4 0 0 0 0 0 0 0 0 0 0 0 0 0 0 0 0 0 0 0 0 5 6 0 16 0 0 0 4 5 6
0 0 0 0 0 0 0 0 3 0 0 17 83 5 2 0 0 0 0 0 0 0 0 0 0 0 0 0 0 0 0 0 0 0 0 0 0 49 30 3 2 1 24 46 11
0 0 0 0 0 0 0 0 0 0 0 7 25 10 0 0 0 0 0 0 0 0 0 0 0 0 0 0 0 0 0 1 42 0 0 0 0 0 0 2 4 5 5 90 8
0 0 0 0 0 0 0 0 0 0 0 88 100 91 1 0 0 0 0 0 0 0 0 0 0 0 0 0 0 0 0 0 13 5 2 0 0 0 0 0 0 0 2 3 3
0 0 0 0 0 0 0 3 0 0 84 2 1 5 0 0 0 0 0 0 3 23 0 0 0 0 0 0 0 0 0 0 0 2 3 0 0 0 0 0 0 0 0 0 0
0 0 0 0 0 0 7 62 5 12 0 0 0 0 1 2 0 1 17 0 2 5 83 16 24 0 0 0 0 0 0 0 0 0 5 0 0 5 5 0 0 0 0 0 0
0 0 0 0 0 1 16 1 3 1 5 10 61 87 90 46 100 97 80 0 1 53 96 100 37 9 0 1 5 0 0 0 0 0 2 4 1 70 8 38 5 0 0 0 0
0 0 0 0 0 0 0 5 5 5 46 100 24 92 59 92 80 99 89 50 52 0 29 82 5 98 100 44 42 5 0 3 0 0 0 7 13 5 50 14 5 1 5 0 0
0 0 0 0 0 0 0 0 3 20 96 100 32 13 5 37 89 90 68 11 58 100 86 17 76 100 100 96 100 49 1 4 3 0 0 0 97 0 0 9 5 5 5 5 6
0 0 0 0 0 0 3 5 5 25 80 85 39 99 100 98 12 46 34 99 100 100 54 99 32 19 100 93 91 100 72 94 45 5 68 0 4 0 2 0 24 32 7 18 22
0 0 0 0 0 0 5 37 81 77 43 100 100 91 100 97 82 92 83 86 82 94 100 98 79 1 28 42 86 75 100 88 100 98 86 0 1 0 0 0 4 87 97 49 97
0 0 0 0 0 0 0 75 50 38 24 57 100 22 73 70 100 100 100 65 100 100 100 98 92 81 87 4 1 70 84 83 74 44 15 5 14 0 0 0 3 74 96 100 64
0 0 0 0 0 0 4 4 6 34 5 28 81 100 5 94 82 86 100 100 99 100 100 100 61 98 74 9 50 8 100 19 100 99 100 12 9 0 0 0 2 5 74 6 6
0 0 0 0 0 24 11 34 23 56 22 81 100 81 92 70 99 96 100 90 93 95 100 96 100 91 100 94 53 97 30 90 79 100 30 81 44 0 0 0 28 0 1 95 100
0 1 0 0 0 71 50 64 60 72 97 100 100 100 60 95 100 100 98 100 49 74 92 79 88 100 74 97 84 99 90 97 100 45 100 24 23 0 0 0 0 24 1 92 100
0 2 0 0 9 3 24 63 34 100 100 100 100 100 100 100 99 86 100 100 100 100 50 92 100 100 100 100 100 100 100 100 9 53 100 100 100 97 0 5 13 39 98 27 18
18 0 0 0 4 4 6 27 89 100 99 70 87 100 93 99 100 96 84 75 29 98 99 85 100 100 100 100 100 99 100 86 100 100 100 100 88 64 100 76 100 69 82 39 56
4 3 0 0 1 13 26 17 61 100 98 100 100 100 100 98 100 100 51 99 96 42 14 26 97 100 100 100 100 100 38 43 94 98 100 100 100 100 94 96 87 92 100 97 67
5 1 15 0 0 36 18 85 89 100 100 100 100 100 100 100 100 99 100 99 59 83 94 94 91 82 62 91 83 99 90 12 6 92 100 100 100 96 100 100 100 100 100 100 87
11 87 49 45 5 27 83 42 88 100 100 100 100 100 100 100 100 100 100 100 100 46 97 100 88 88 94 100 77 98 41 89 96 94 99 98 100 100 100 100 100 92 41 63 43
88 96 100 58 5 5 39 36 98 100 100 100 100 100 100 100 100 100 100 100 100 100 100 96 94 100 52 82 94 86 100 59 75 98 100 100 96 100 100 100 100 100 68 94 100

GFSSW_prec_cloud_138.txt.gz
Cloud_Cover
0 0 0 0 0 0 0 0 0 3 1 0 2 0 0 0 0 0 4 0 1 4 5 5 7 22 24 5 1 0 0 0 3 70 100 21 0 2 1 0 0 5 0 0 0
0 0 0 0 0 0 0 0 0 1 0 2 11 29 91 1 1 3 0 0 0 0 5 3 5 0 0 5 5 5 3 12 93 98 71 26 0 2 0 0 0 0 2 0 0
0 0 0 0 0 0 0 0 3 6 40 88 99 81 14 0 7 0 0 0 0 0 0 0 0 3 0 0 0 0 1 100 100 100 95 39 0 91 1 0 0 0 4 5 4
0 0 0 0 0 0 0 0 0 0 1 3 32 89 100 0 0 0 0 0 0 0 0 0 0 0 1 0 0 0 0 3 8 45 95 100 88 5 1 39 3 0 0 0 0
0 0 0 0 0 0 0 0 0 0 55 100 100 99 16 5 5 0 0 0 0 0 0 0 0 0 0 0 0 0 2 0 0 0 4 39 62 22 5 51 43 5 0 0 0
0 0 0 0 5 2 0 0 0 0 2 92 100 97 52 19 0 0 0 0 0 0 0 0 0 0 0 0 0 0 0 1 1 3 4 3 5 1 4 20 5 5 0 0 4
0 0 2 22 1 0 0 0 0 0 0 97 87 22 6 0 0 0 0 0 0 0 0 0 0 0 0 0 0 0 0 0 0 5 5 5 5 0 100 2 0 0 0 5 68
0 0 1 12 0 5 0 0 0 0 0 17 33 2 12 0 0 0 0 0 0 0 0 0 0 0 0 0 0 0 0 0 0 0 1 4 4 92 100 0 0 0 0 4 99
0 0 1 0 0 0 0 0 0 0 0 0 0 0 2 0 0 0 0 0 0 0 0 0 0 0 0 0 0 0 0 0 0 0 0 0 0 0 0 0 0 0 0 1 29
0 18 20 0 0 0 0 0 0 0 0 0 0 1 0 0 1 0 72 0 0 0 0 0 0 0 0 0 0 0 0 0 0 0 0 0 0 0 0 0 0 0 0 0 4
0 0 18 0 0 0 0 0 0 0 0 0 0 0 0 0 0 3 5 0 0 0 0 3 72 0 0 0 0 0 0 0 0 0 0 0 0 0 0 0 0 0 0 0 0
0 0 7 0 0 0 0 0 0 0 0 0 0 0 0 5 2 4 0 4 3 0 0 2 24 0 0 0 31 15 0 0 0 0 0 0 0 0 0 0 0 0 0 0 0
0 0 12 0 0 0 0 0 0 4 2 0 0 0 0 4 26 56 99 83 48 0 3 0 0 3 4 1 54 95 40 0 0 0 0 0 0 0 0 0 0 0 0 0 0
0 0 0 46 0 0 0 0 0 2 0 0 0 0 0 0 34 100 94 81 97 90 0 86 0 0 1 30 73 5 0 0 0 0 0 0 0 0 0 0 0 0 0 0 0
0 0 0 2 1 0 0 0 0 0 4 3 0 0 0 2 46 99 91 100 100 100 55 9 1 0 0 0 19 5 5 4 0 0 0 0 1 0 0 0 0 0 0 0 0
0 0 17 0 1 0 0 0 0 0 1 0 1 1 4 1 23 5 68 100 99 68 100 52 61 49 32 5 27 1 80 7 8 19 46 0 0 0 0 0 0 0 0 0 0
0 0 18 0 0 0 0 0 0 0 0 2 44 72 37 2 0 0 86 100 100 98 83 92 98 11 26 5 77 96 14 30 62 24 66 0 46 0 0 0 0 0 0 5 94
0 0 0 0 0 0 0 0 1 0 0 16 100 100 83 7 88 70 85 100 100 100 100 92 100 93 100 98 75 39 82 52 89 14 0 0 100 2 0 0 0 0 0 0 5
0 0 0 0 0 0 0 0 0 1 40 73 96 100 100 100 32 97 75 12 89 98 100 88 21 89 100 92 100 95 5 11 97 100 100 12 0 0 0 0 0 0 0 0 0
9 7 0 0 0 0 0 0 0 61 78 100 91 96 100 100 100 100 100 90 70 68 98 45 76 72 100 85 94 100 43 5 68 99 98 5 26 2 0 0 0 0 0 0 0
0 0 0 0 0 0 0 0 0 37 98 97 98 100 100 72 100 100 95 80 98 23 8 5 51 88 86 44 39 100 91 6 65 55 93 22 3 5 0 0 0 0 0 0 0
61 5 0 0 0 0 0 2 5 8 9 100 100 100 100 99 92 58 71 100 15 83 98 17 68 100 100 100 100 100 100 95 100 7 18 9 1 5 0 0 0 0 0 0 0
100 22 0 0 1 3 0 0 9 5 47 100 100 100 100 100 100 100 71 99 100 100 100 92 100 100 100 95 98 100 100 100 85 82 71 96 60 98 5 0 2 3 0 13 1
78 0 0 0 2 6 42 4 5 2 75 100 100 99 100 100 100 100 100 99 100 100 100 100 100 99 89 34 99 89 100 100 100 100 100 12 100 100 97 0 10 100 76 12 83
0 3 5 6 20 15 10 5 5 51 5 70 100 100 100 100 100 100 100 100 100 90 100 94 100 91 100 80 92 99 96 91 100 100 90 89 100 75 78 78 56 100 98 97 100
4 11 6 90 100 100 5 5 17 8 36 8 99 99 100 100 100 100 100 100 100 100 100 100 100 96 24 67 100 99 100 93 100 100 73 97 59 86 5 78 7 54 100 100 100
8 21 74 42 98 85 61 91 96 9 8 100 100 100 100 100 100 100 89 100 100 100 100 100 100 100 100 100 100 100 100 82 47 97 40 96 100 100 100 98 27 100 100 100 100

GFSSW_prec_cloud_141.txt.gz
Cloud_Cover
3 0 2 2 2 1 0 0 3 9 46 52 93 19 0 0 0 0 28 0 0 0 1 4 4 0 0 0 0 0 0 0 45 100 100 92 82 99 8 0 0 0 0 0 0
0 0 0 0 2 0 1 7 2 11 30 2 7 11 9 0 0 11 0 0 0 0 0 0 0 0 0 0 0 0 0 4 100 100 100 99 0 3 9 3 0 0 0 0 0
0 0 0 0 0 0 0 0 7 95 100 100 100 98 0 0 7 0 0 0 0 0 0 0 0 0 0 0 0 0 0 41 72 94 100 98 1 0 1 0 0 0 0 4 5
0 0 0 0 0 0 0 0 3 61 100 100 100 68 0 0 0 0 0 0 0 0 0 0 0 0 0 0 0 0 0 5 46 5 24 86 90 0 0 3 5 0 0 0 0
0 0 22 0 0 0 0 0 0 0 85 100 100 30 3 0 0 0 0 0 0 0 0 0 0 0 0 0 0 0 1 4 5 40 30 20 13 2 0 8 8 2 0 0 0
1 8 100 18 0 1 0 0 0 0 13 100 100 28 0 0 0 0 0 0 0 0 0 0 0 0 0 0 0 0 0 3 1 3 6 50 86 2 4 4 9 26 0 0 0
0 58 98 15 0 1 0 0 0 0 0 100 100 23 0 0 0 0 0 0 0 0 0 0 0 0 0 0 0 0 0 0 4 16 5 5 23 5 100 60 5 6 6 0 0
0 11 30 10 2 0 0 0 0 0 0 0 11 24 22 0 0 0 0 0 0 0 0 0 4 1 0 0 0 0 0 0 3 3 10 11 9 86 33 5 0 0 5 1 0
0 3 12 1 0 0 0 0 0 0 0 0 1 1 1 0 0 0 0 0 0 0 0 0 97 65 29 0 0 0 0 0 0 0 2 0 12 6 5 0 0 0 0 1 0
0 0 1 6 0 0 0 0 0 0 0 0 0 2 0 0 0 0 0 0 0 0 3 3 60 99 53 80 21 0 0 0 0 0 0 0 0 5 5 5 0 0 0 0 0
1 0 0 0 0 0 2 0 0 0 0 0 0 0 0 0 0 0 0 5 2 3 0 24 0 42 1 17 4 0 0 0 0 0 0 0 0 0 0 0 0 0 0 0 0
0 0 0 0 0 0 0 0 0 0 0 0 0 0 0 0 0 0 0 8 8 73 4 4 2 0 0 100 100 100 7 0 0 0 0 0 0 0 0 0 0 0 0 0 0
0 0 9 0 0 0 0 0 0 0 0 0 0 0 0 0 0 0 1 97 100 100 5 5 13 0 0 5 20 100 20 5 4 0 0 0 0 0 0 0 0 0 0 0 0
0 0 0 81 0 0 0 0 0 0 0 0 0 0 0 0 3 2 0 0 95 95 80 5 72 0 0 1 0 7 9 6 89 5 0 3 0 0 0 0 0 0 0 0 0
0 0 25 59 3 0 0 0 0 0 0 0 0 0 26 6 6 98 1 9 100 100 55 47 22 8 0 0 5 3 0 78 100 5 7 1 2 0 0 0 0 0 0 0 0
0 0 85 0 19 0 0 0 0 0 1 0 0 81 100 95 100 100 76 8 55 68 69 67 84 98 100 84 6 0 0 2 99 100 43 2 0 0 0 0 0 0 0 0 0
0 0 10 0 0 0 0 0 1 0 0 0 47 100 100 100 93 85 100 98 69 99 42 87 100 100 100 75 72 57 38 74 32 65 37 0 3 0 0 0 0 0 4 0 0
0 1 0 0 0 0 0 0 0 0 0 2 5 100 100 100 90 95 92 100 99 100 100 40 100 100 100 100 100 98 87 30 16 3 0 0 76 0 0 0 0 0 0 4 0
0 0 0 0 0 0 0 0 0 0 3 5 66 6 82 100 84 41 81 95 100 100 100 98 29 100 64 99 96 100 85 53 29 7 82 7 1 0 0 0 0 0 0 0 0
30 25 0 0 0 0 0 0 0 4 72 5 14 7 46 35 41 99 25 39 100 100 100 98 44 100 100 96 74 100 100 93 98 87 89 14 3 0 0 0 0 0 0 0 0
4 6 0 0 0 0 0 0 0 31 62 5 11 98 68 97 100 72 95 95 75 73 100 70 63 75 100 100 82 99 94 100 82 6 6 27 16 0 0 0 0 0 0 0 0
96 0 0 0 0 0 0 0 0 0 0 13 87 98 98 99 100 95 97 100 100 68 100 97 100 100 100 100 100 100 100 100 100 91 24 12 1 0 0 0 0 0 0 0 0
100 95 0 0 5 26 9 5 5 2 0 5 13 95 100 100 100 100 94 100 100 99 100 79 53 89 36 86 97 63 84 100 100 100 100 82 5 8 0 0 0 0 0 0 0
58 1 0 0 5 11 100 26 13 5 0 6 69 95 100 100 100 100 100 97 100 100 100 100 100 100 79 60 65 52 69 100 100 100 94 52 50 100 2 33 5 0 0 3 0
1 2 38 18 6 5 37 42 69 36 18 6 98 100 100 100 100 100 100 100 100 100 100 98 100 100 100 100 100 100 100 100 100 95 100 100 98 49 100 20 5 5 0 46 6
2 45 5 5 5 6 28 45 97 100 100 75 66 100 100 100 100 100 100 100 100 100 100 100 100 100 100 100 100 97 100 100 100 100 100 93 88 5 40 78 72 0 30 42 5
10 5 59 6 17 18 49 100 46 100 27 100 100 100 99 100 100 100 100 100 100 100 100 100 100 100 100 100 100 100 100 100 100 100 100 100 40 8 5 23 18 0 96 90 58

GFSSW_prec_cloud_144.txt.gz
Cloud_Cover
0 4 4 33 40 94 40 0 4 12 59 78 65 53 9 2 4 3 21 0 0 0 0 0 1 4 0 0 0 0 0 0 12 100 100 100 100 5 0 5 0 0 0 1 4
0 0 0 0 0 6 7 18 100 100 89 56 44 37 44 70 0 39 0 0 0 0 0 0 0 0 1 0 0 0 0 0 72 100 100 100 28 5 4 0 5 5 2 0 0
0 0 0 5 14 27 22 16 71 99 100 100 100 100 3 11 3 0 0 0 0 0 0 0 0 0 0 0 0 0 0 5 7 97 100 100 44 46 5 3 2 5 5 3 0
0 0 0 0 0 0 0 0 17 92 100 100 89 99 36 0 0 0 0 0 0 0 0 0 0 0 0 0 0 0 0 0 3 94 5 99 100 96 0 5 5 2 0 0 5
1 66 76 0 0 0 0 0 0 7 85 100 48 97 1 0 0 0 0 0 0 0 0 0 0 0 0 0 0 0 0 0 0 5 5 37 34 5 0 0 2 4 0 0 0
3 25 60 5 0 0 0 0 0 1 31 53 8 23 1 0 0 0 0 0 0 0 0 0 0 0 0 0 0 0 0 0 0 5 0 0 5 96 37 14 28 0 0 0 2
0 25 48 16 0 0 0 0 0 0 0 0 0 1 2 0 0 0 0 0 0 0 0 0 0 0 0 0 0 0 0 0 0 0 2 5 5 0 100 88 90 99 65 2 16
0 1 8 14 2 0 0 0 0 0 0 0 0 0 24 0 0 0 0 0 0 0 0 0 0 0 0 0 0 0 0 0 0 0 0 5 1 5 63 7 4 99 100 20 5
0 0 6 1 1 0 0 0 0 0 0 0 0 0 0 0 0 0 0 0 0 0 0 0 0 0 5 8 4 0 0 0 0 0 0 2 0 5 3 6 4 11 93 71 5
0 0 0 0 0 0 0 0 0 0 0 0 0 0 0 0 0 0 0 0 0 0 0 0 0 0 1 31 78 0 0 0 0 0 0 0 0 5 0 0 1 1 2 0 0
0 0 0 0 13 0 12 0 0 0 0 0 0 0 0 0 0 0 0 0 0 0 0 2 2 0 0 0 2 93 93 89 0 0 0 0 0 0 1 0 0 0 0 0 0
0 0 0 3 2 1 0 0 0 0 0 0 0 0 0 0 0 0 0 0 0 0 0 4 2 0 34 4 90 97 20 22 15 0 0 0 0 0 0 0 0 0 0 0 0
0 0 0 98 1 0 0 0 0 0 0 0 0 0 0 0 2 6 9 51 81 6 0 5 4 2 10 3 0 15 5 5 4 4 0 0 0 0 0 0 0 0 0 0 0
0 0 18 100 0 0 0 0 0 0 2 0 0 0 0 0 3 19 5 13 99 100 4 9 5 1 4 0 12 0 2 2 1 2 0 1 0 0 0 0 0 0 0 0 0
0 0 40 92 4 0 0 0 0 0 2 0 0 0 5 2 5 87 6 9 41 100 30 5 7 8 7 90 12 0 5 5 6 1 5 0 4 0 0 0 0 0 0 0 0
0 0 67 8 25 1 0 0 0 0 2 0 0 0 4 31 100 64 53 5 63 100 100 28 24 50 80 98 67 1 74 100 100 6 12 0 15 0 0 0 0 0 0 0 0
0 0 6 0 0 0 0 0 1 2 0 0 0 1 5 2 76 40 5 4 9 100 100 99 8 91 85 58 73 79 80 99 74 64 21 0 4 0 0 0 0 0 0 0 0
0 1 0 0 0 0 0 0 0 0 0 0 2 5 5 5 37 10 5 5 27 99 99 100 10 80 100 96 100 100 100 29 96 45 3 0 1 0 0 0 0 0 0 0 0
0 1 0 0 0 0 0 0 0 0 1 5 5 2 59 8 41 5 5 5 66 97 99 100 56 50 100 91 100 100 95 100 74 6 96 68 2 0 0 0 0 0 0 0 0
39 35 0 0 0 0 0 0 0 0 23 5 5 4 5 15 21 66 18 26 58 94 100 99 84 97 100 100 100 100 100 100 100 100 91 5 2 0 0 0 0 0 0 0 0
3 0 0 0 0 0 3 0 0 1 12 5 0 15 16 92 84 100 82 59 49 98 91 96 86 55 95 100 100 100 100 100 100 99 65 24 7 0 0 0 0 0 0 0 0
42 0 0 0 1 4 3 5 2 0 0 0 4 5 44 100 100 100 100 100 94 84 66 100 100 100 24 10 16 87 100 84 100 99 81 38 1 0 0 0 0 0 0 0 0
78 34 0 0 4 5 5 5 5 5 5 11 9 22 96 100 100 100 100 100 100 100 100 100 100 100 76 43 96 11 28 100 100 100 99 98 73 10 0 0 0 0 0 0 0
13 4 1 1 5 5 60 5 67 36 4 68 5 80 100 100 100 100 99 100 100 100 100 100 100 100 100 100 90 80 96 100 99 100 25 27 50 99 83 1 0 0 0 0 0
11 10 89 7 5 5 6 5 100 100 46 5 5 68 100 99 100 100 100 100 100 100 100 97 100 100 100 100 100 100 75 100 100 99 100 81 5 28 5 0 0 0 0 0 1
2 34 5 5 5 5 5 5 81 89 87 19 98 98 100 100 100 100 100 100 100 100 100 100 100 100 100 100 100 100 100 78 100 84 45 5 10 83 5 0 0 0 0 0 1
7 5 88 37 6 5 5 5 14 90 6 49 64 98 100 69 100 100 100 100 100 100 100 100 100 100 100 99 100 100 100 100 100 97 98 94 100 100 7 0 0 0 0 0 4

GFSSW_prec_cloud_147.txt.gz
Cloud_Cover
1 2 3 43 46 14 87 92 20 12 20 47 72 100 100 100 61 3 0 0 0 0 1 5 10 48 5 0 0 0 0 0 31 97 100 100 89 0 0 0 0 0 0 76 100
0 4 4 3 9 9 29 100 100 100 70 55 9 73 100 98 4 0 0 0 0 0 0 0 0 0 2 4 2 0 0 0 80 100 100 100 100 29 0 0 0 0 5 0 52
4 1 3 3 5 14 19 10 19 79 6 12 29 14 14 2 0 0 0 0 0 0 0 0 0 0 0 0 0 0 0 5 6 92 100 100 100 11 22 0 0 4 0 5 0
0 0 1 0 0 0 0 0 17 18 6 8 38 0 0 0 0 0 0 0 0 0 0 0 0 0 0 0 0 0 0 0 0 6 21 82 100 95 67 5 0 0 0 0 0
0 0 0 0 0 0 0 0 2 5 19 2 0 0 0 0 0 0 0 0 0 0 0 0 0 0 0 0 0 0 0 0 0 0 5 5 66 100 50 5 2 0 0 0 0
0 0 1 0 0 0 0 0 6 14 8 0 0 0 0 0 0 0 0 0 0 0 0 0 0 0 0 0 0 0 0 0 0 0 5 5 5 5 71 89 5 2 0 0 0
0 0 1 0 0 0 0 0 0 0 0 0 0 0 0 0 0 0 0 0 0 0 0 0 0 0 0 0 0 0 0 0 0 0 0 4 28 0 100 92 91 98 0 0 3
0 0 0 0 1 0 0 2 0 0 0 0 0 0 0 0 0 0 0 0 0 0 0 0 0 0 0 0 0 0 0 0 0 0 0 0 0 99 100 38 74 78 96 24 1
0 0 0 1 13 0 0 0 0 0 0 0 0 0 0 0 0 0 0 0 0 0 0 0 0 0 0 0 1 1 0 0 0 0 0 0 0 36 41 88 8 18 79 80 10
0 0 0 39 21 1 0 0 0 0 0 0 0 0 0 0 0 0 0 0 0 0 0 0 0 0 0 0 0 4 83 0 0 0 0 0 0 0 4 5 38 4 0 3 5
0 0 0 44 92 0 1 0 0 0 0 0 0 0 0 0 0 0 0 0 0 0 0 0 0 0 0 0 0 4 48 100 72 0 0 0 0 0 0 5 5 82 20 5 0
0 0 7 100 56 2 0 0 0 0 0 0 0 0 0 0 0 0 0 0 0 0 1 1 0 0 0 5 1 0 5 10 83 5 1 0 0 0 0 0 5 6 75 10 6
0 0 1 38 0 0 0 0 0 0 0 0 0 0 0 0 0 0 0 0 1 11 85 92 4 5 5 5 0 0 2 5 19 35 0 2 0 0 0 0 0 0 20 5 5
0 0 1 45 0 0 0 0 0 0 0 0 0 0 0 0 0 0 0 0 2 1 22 65 6 19 5 5 4 5 98 5 54 93 29 1 0 0 0 0 0 0 0 0 0
0 0 2 6 0 0 0 0 0 0 0 0 0 0 0 0 0 0 3 0 0 3 6 32 98 7 24 2 2 97 99 8 6 100 100 79 5 0 0 0 0 0 0 0 0
0 0 3 0 0 0 0 0 0 0 0 0 0 0 0 1 4 2 1 0 0 5 36 32 54 3 5 5 8 53 89 79 100 88 100 70 94 0 0 0 0 0 0 0 0
0 0 0 0 0 0 0 0 0 0 0 0 0 0 0 3 5 0 3 5 25 68 54 9 6 5 5 25 84 100 100 100 100 99 38 58 100 0 0 0 0 0 0 0 0
0 0 0 0 0 0 0 0 0 0 0 0 0 0 0 5 4 5 5 58 9 94 86 87 4 5 5 67 97 100 100 100 100 100 100 100 100 0 0 0 0 0 0 0 0
0 0 0 0 0 0 0 0 0 0 0 1 4 5 1 5 28 21 48 5 26 92 96 96 56 1 39 38 99 100 100 100 100 100 60 100 17 0 0 0 0 0 0 0 0
4 0 0 0 0 0 0 0 0 0 0 2 5 3 2 10 40 78 48 7 89 38 80 81 89 7 10 84 100 100 98 100 100 100 100 89 8 0 0 0 0 0 0 0 0
0 0 0 0 0 0 2 1 0 0 4 4 5 5 5 59 96 51 36 76 17 67 78 78 100 24 11 32 19 88 100 100 96 95 99 80 58 1 0 0 0 0 0 0 0
5 5 0 0 0 3 0 4 5 5 4 5 4 6 67 98 100 92 83 99 97 81 100 100 100 87 74 82 99 100 100 77 100 96 99 95 83 19 2 0 0 0 0 0 0
5 1 0 0 0 1 4 5 5 55 5 13 18 5 95 96 100 54 89 100 100 100 100 100 99 100 100 100 100 100 98 100 100 100 100 99 100 15 3 2 0 0 0 0 0
5 2 0 0 3 5 35 5 39 16 5 94 5 14 73 91 100 90 99 100 99 100 100 100 100 100 99 100 100 100 100 100 100 100 96 100 92 100 99 100 21 0 0 0 0
5 27 76 1 0 5 24 5 5 5 5 5 5 19 98 94 91 100 99 100 100 100 100 100 100 100 100 100 100 100 100 100 100 100 100 100 92 96 60 28 3 0 0 0 4
5 12 8 5 5 6 5 5 5 10 90 17 18 73 100 100 100 100 100 100 100 100 100 100 98 74 100 100 100 100 100 100 100 95 99 100 44 100 91 7 5 0 0 0 0
5 5 93 5 5 5 3 5 8 59 34 94 81 100 98 94 100 100 100 100 100 100 100 100 100 100 100 100 100 100 100 100 100 100 100 100 100 81 82 88 6 0 0 0 0